Location: Grange Verzio
(44.5000°N, 6.9833°E)
Time: 17:15:00
(UTC+00:00)

Cosmos 2219 Rocket - Pass Details

Date: 02 October 2023
Orbit: 826 x 848 km, 71.0° (Epoch: 08 December)

Event Time Altitude Azimuth Distance (km) Brightness Sun altitude
Rises 18:15:24 0° 230° (SW) 3,354 6.0 -12.2°
Reaches altitude 10° 18:18:01 10° 239° (WSW) 2,426 5.4 -12.7°
Maximum altitude 18:23:07 36° 305° (NW) 1,298 3.8 -13.6°
Drops below altitude 10° 18:28:15 10° 11° (NNE) 2,448 4.6 -14.5°
Sets 18:30:55 0° 20° (NNE) 3,389 5.2 -14.9°
